Location: Tamazert
(32.6352°N, 5.2072°W)
Time: 01:42:39
(UTC+00:00)

Vanguard 1 Rocket - Pass Details

Date: 12 October 2022
Orbit: 650 x 4225 km, 34.3° (Epoch: 05 December)

Event Time Altitude Azimuth Distance (km) Brightness Sun altitude
Rises 19:50:56 0° 269° (W) 8,466 13.6 -25.9°
Reaches altitude 10° 19:57:06 10° 271° (W) 7,332 13.0 -27.2°
Maximum altitude 20:21:26 85° 2° (N) 2,962 9.7 -32.2°
Enters shadow 20:26:44 53° 85° (E) 2,969 9.5 -33.3°
